Location: Kalberh�ni
(46.4610°N, 7.2453°E)
Time: 00:36:45
(UTC+00:00)

Cosmos 1992 Rocket - Visible Passes

Search period start: 23 October 2021 00:00
Search period end: 02 November 2021 00:00
Orbit: 759 x 765 km, 74.0° (Epoch: 22 October)

Date Brightness Start Highest point End Pass type
(mag) Time Alt. Az. Time Alt. Az. Time Alt. Az.
29 Oct 6.7 05:01:03 10° NNE 05:02:56 12° NE 05:04:48 10° ENE visible
31 Oct 6.1 05:23:41 10° N 05:27:55 24° NE 05:32:08 10° ESE visible
01 Nov 6.6 04:45:32 10° N 04:48:40 16° NE 04:51:49 10° E visible
